Time,TemperatureF,DewpointF,PressureIn,WindDirection,WindDirectionDegrees,WindSpeedMPH,WindSpeedGustMPH,Humidity,HourlyPrecipIn,Conditions,Clouds,dailyrainin,SolarRadiationWatts/m^2,SoftwareType,DateUTC
2013-02-01 00:00:00,26.0,18.5,29.79,SSW,202,6.0,10.0,73,-99.99,,,0.44,0.00,VWS V14.01,2013-02-01 05:00:00,
2013-02-01 00:01:00,26.0,18.5,29.79,SW,225,10.0,13.0,73,-99.99,,,0.44,0.00,VWS V14.01,2013-02-01 05:01:00,
2013-02-01 00:02:00,26.0,18.5,29.79,SW,225,17.0,19.0,73,-99.99,,,0.44,0.00,VWS V14.01,2013-02-01 05:02:00,
2013-02-01 00:07:00,27.0,19.8,29.79,SSW,202,5.0,11.0,74,-99.99,,,0.00,0.00,VWS V14.01,2013-02-01 05:07:00,
2013-02-01 00:12:00,26.0,19.2,29.79,South,180,10.0,17.0,75,-99.99,,,0.00,0.00,VWS V14.01,2013-02-01 05:12:00,
2013-02-01 00:17:00,26.0,20.4,29.79,SSW,202,16.0,16.0,79,-99.99,,,0.00,0.00,VWS V14.01,2013-02-01 05:17:00,
2013-02-01 00:22:00,25.0,20.3,29.79,SW,225,7.0,21.0,82,-99.99,,,0.00,0.00,VWS V14.01,2013-02-01 05:22:00,
2013-02-01 00:27:00,25.0,20.9,29.79,SE,135,7.0,16.0,84,-99.99,,,0.00,0.00,VWS V14.01,2013-02-01 05:27:00,
2013-02-01 00:32:00,25.0,21.4,29.79,South,180,5.0,15.0,86,-99.99,,,0.00,0.00,VWS V14.01,2013-02-01 05:32:00,
2013-02-01 00:37:00,25.0,21.4,29.79,SE,135,3.0,10.0,86,-99.99,,,0.00,0.00,VWS V14.01,2013-02-01 05:37:00,
2013-02-01 00:42:00,25.0,21.4,29.80,SE,135,4.0,15.0,86,-99.99,,,0.00,0.00,VWS V14.01,2013-02-01 05:42:00,
2013-02-01 00:47:00,25.0,21.7,29.79,SSE,158,8.0,15.0,87,-99.99,,,0.00,0.00,VWS V14.01,2013-02-01 05:47:00,
2013-02-01 00:52:00,25.0,22.0,29.79,South,180,8.0,12.0,88,-99.99,,,0.00,0.00,VWS V14.01,2013-02-01 05:52:00,
2013-02-01 00:57:00,25.0,22.5,29.79,SSE,158,8.0,8.0,90,-99.99,,,0.00,0.00,VWS V14.01,2013-02-01 05:57:00,
2013-02-01 01:02:00,25.0,22.8,29.79,SSE,158,7.0,13.0,91,-99.99,,,0.00,0.00,VWS V14.01,2013-02-01 06:02:00,
2013-02-01 01:07:00,25.0,22.8,29.79,SSE,158,6.0,6.0,91,-99.99,,,0.00,0.00,VWS V14.01,2013-02-01 06:07:00,
2013-02-01 01:12:00,24.0,22.0,29.79,SSW,202,6.0,12.0,92,-99.99,,,0.00,0.00,VWS V14.01,2013-02-01 06:12:00,
2013-02-01 01:17:00,25.0,23.0,29.78,SSE,158,7.0,10.0,92,-99.99,,,0.00,0.00,VWS V14.01,2013-02-01 06:17:00,
2013-02-01 01:22:00,25.0,22.5,29.78,SSW,202,7.0,15.0,90,-99.99,,,0.00,0.00,VWS V14.01,2013-02-01 06:22:00,
2013-02-01 01:27:00,25.0,21.1,29.78,SW,225,8.0,10.0,85,-99.99,,,0.00,0.00,VWS V14.01,2013-02-01 06:27:00,
2013-02-01 01:32:00,26.0,20.4,29.78,SSW,202,4.0,12.0,79,-99.99,,,0.00,0.00,VWS V14.01,2013-02-01 06:32:00,
2013-02-01 01:37:00,26.0,19.2,29.79,SW,225,11.0,20.0,75,-99.99,,,0.00,0.00,VWS V14.01,2013-02-01 06:37:00,
2013-02-01 01:42:00,26.0,18.9,29.79,South,180,11.0,11.0,74,-99.99,,,0.00,0.00,VWS V14.01,2013-02-01 06:42:00,
2013-02-01 01:47:00,26.0,18.9,29.79,SSE,158,7.0,15.0,74,-99.99,,,0.00,0.00,VWS V14.01,2013-02-01 06:47:00,
2013-02-01 01:52:00,26.0,18.9,29.78,SW,225,3.0,9.0,74,-99.99,,,0.00,0.00,VWS V14.01,2013-02-01 06:52:00,
2013-02-01 01:57:00,26.0,19.2,29.79,SW,225,14.0,14.0,75,-99.99,,,0.00,0.00,VWS V14.01,2013-02-01 06:57:00,
2013-02-01 02:02:00,26.0,19.2,29.78,WSW,248,3.0,6.0,75,-99.99,,,0.00,0.00,VWS V14.01,2013-02-01 07:02:00,
2013-02-01 02:07:00,26.0,18.9,29.77,SSW,202,4.0,6.0,74,-99.99,,,0.00,0.00,VWS V14.01,2013-02-01 07:07:00,
2013-02-01 02:12:00,26.0,18.5,29.77,SSW,202,3.0,10.0,73,-99.99,,,0.00,0.00,VWS V14.01,2013-02-01 07:12:00,
2013-02-01 02:17:00,26.0,18.5,29.77,WNW,292,3.0,6.0,73,-99.99,,,0.00,0.00,VWS V14.01,2013-02-01 07:17:00,
2013-02-01 02:22:00,26.0,18.5,29.77,South,180,4.0,4.0,73,-99.99,,,0.00,0.00,VWS V14.01,2013-02-01 07:22:00,
2013-02-01 02:27:00,25.0,18.8,29.77,SSE,158,6.0,7.0,77,-99.99,,,0.00,0.00,VWS V14.01,2013-02-01 07:27:00,
2013-02-01 02:32:00,25.0,19.1,29.77,South,180,3.0,6.0,78,-99.99,,,0.00,0.00,VWS V14.01,2013-02-01 07:32:00,
2013-02-01 02:37:00,26.0,20.1,29.77,ESE,112,1.0,9.0,78,-99.99,,,0.00,0.00,VWS V14.01,2013-02-01 07:37:00,
2013-02-01 02:42:00,25.0,19.1,29.78,WSW,248,3.0,11.0,78,-99.99,,,0.00,0.00,VWS V14.01,2013-02-01 07:42:00,
2013-02-01 02:47:00,25.0,18.8,29.78,SSW,202,8.0,11.0,77,-99.99,,,0.00,0.00,VWS V14.01,2013-02-01 07:47:00,
2013-02-01 02:52:00,26.0,19.5,29.78,SSW,202,5.0,11.0,76,-99.99,,,0.00,0.00,VWS V14.01,2013-02-01 07:52:00,
2013-02-01 02:57:00,26.0,19.2,29.78,South,180,4.0,8.0,75,-99.99,,,0.00,0.00,VWS V14.01,2013-02-01 07:57:00,
2013-02-01 03:02:00,25.0,18.2,29.78,SW,225,2.0,9.0,75,-99.99,,,0.00,0.00,VWS V14.01,2013-02-01 08:02:00,
2013-02-01 03:07:00,25.0,17.6,29.79,South,180,5.0,9.0,73,-99.99,,,0.00,0.00,VWS V14.01,2013-02-01 08:07:00,
2013-02-01 03:12:00,25.0,17.6,29.78,SSW,202,2.0,3.0,73,-99.99,,,0.00,0.00,VWS V14.01,2013-02-01 08:12:00,
2013-02-01 03:17:00,25.0,17.3,29.79,SW,225,13.0,15.0,72,-99.99,,,0.00,0.00,VWS V14.01,2013-02-01 08:17:00,
2013-02-01 03:22:00,25.0,16.6,29.79,SSE,158,7.0,13.0,70,-99.99,,,0.00,0.00,VWS V14.01,2013-02-01 08:22:00,
2013-02-01 03:27:00,26.0,17.6,29.79,South,180,7.0,8.0,70,-99.99,,,0.00,0.00,VWS V14.01,2013-02-01 08:27:00,
2013-02-01 03:32:00,25.0,16.3,29.79,South,180,4.0,4.0,69,-99.99,,,0.00,0.00,VWS V14.01,2013-02-01 08:32:00,
2013-02-01 03:37:00,25.0,16.6,29.79,ESE,112,2.0,8.0,70,-99.99,,,0.00,0.00,VWS V14.01,2013-02-01 08:37:00,
2013-02-01 03:42:00,25.0,16.6,29.79,SSW,202,10.0,10.0,70,-99.99,,,0.00,0.00,VWS V14.01,2013-02-01 08:42:00,
2013-02-01 03:47:00,25.0,16.3,29.79,West,270,7.0,10.0,69,-99.99,,,0.00,0.00,VWS V14.01,2013-02-01 08:47:00,
2013-02-01 03:52:00,25.0,16.3,29.79,SE,135,4.0,12.0,69,-99.99,,,0.00,0.00,VWS V14.01,2013-02-01 08:52:00,
2013-02-01 03:57:00,25.0,15.9,29.79,SW,225,7.0,14.0,68,-99.99,,,0.00,0.00,VWS V14.01,2013-02-01 08:57:00,
2013-02-01 04:02:00,25.0,15.9,29.79,SW,225,5.0,11.0,68,-99.99,,,0.00,0.00,VWS V14.01,2013-02-01 09:02:00,
2013-02-01 04:07:00,25.0,15.9,29.79,SW,225,4.0,7.0,68,-99.99,,,0.00,0.00,VWS V14.01,2013-02-01 09:07:00,
2013-02-01 04:12:00,25.0,16.6,29.79,South,180,3.0,3.0,70,-99.99,,,0.00,0.00,VWS V14.01,2013-02-01 09:12:00,
2013-02-01 04:17:00,25.0,16.6,29.79,SSE,158,5.0,6.0,70,-99.99,,,0.00,0.00,VWS V14.01,2013-02-01 09:17:00,
2013-02-01 04:22:00,25.0,16.9,29.79,South,180,2.0,8.0,71,-99.99,,,0.00,0.00,VWS V14.01,2013-02-01 09:22:00,
2013-02-01 04:27:00,25.0,17.3,29.79,South,180,4.0,4.0,72,-99.99,,,0.00,0.00,VWS V14.01,2013-02-01 09:27:00,
2013-02-01 04:32:00,25.0,16.6,29.80,SW,225,1.0,6.0,70,-99.99,,,0.00,0.00,VWS V14.01,2013-02-01 09:32:00,
2013-02-01 04:37:00,25.0,16.3,29.80,SSW,202,8.0,8.0,69,-99.99,,,0.00,0.00,VWS V14.01,2013-02-01 09:37:00,
2013-02-01 04:42:00,25.0,15.6,29.80,SW,225,8.0,10.0,67,-99.99,,,0.00,0.00,VWS V14.01,2013-02-01 09:42:00,
2013-02-01 04:47:00,25.0,15.6,29.80,SW,225,7.0,8.0,67,-99.99,,,0.00,0.00,VWS V14.01,2013-02-01 09:47:00,
2013-02-01 04:52:00,24.0,14.6,29.80,WSW,248,15.0,15.0,67,-99.99,,,0.00,0.00,VWS V14.01,2013-02-01 09:52:00,
2013-02-01 04:57:00,25.0,15.6,29.80,South,180,5.0,11.0,67,-99.99,,,0.00,0.00,VWS V14.01,2013-02-01 09:57:00,
2013-02-01 05:02:00,24.0,14.6,29.80,SSW,202,8.0,11.0,67,-99.99,,,0.00,0.00,VWS V14.01,2013-02-01 10:02:00,
2013-02-01 05:07:00,24.0,14.3,29.81,SW,225,11.0,16.0,66,-99.99,,,0.00,0.00,VWS V14.01,2013-02-01 10:07:00,
2013-02-01 05:12:00,24.0,14.3,29.81,SSW,202,11.0,13.0,66,-99.99,,,0.00,0.00,VWS V14.01,2013-02-01 10:12:00,
2013-02-01 05:17:00,24.0,14.3,29.81,SSW,202,7.0,13.0,66,-99.99,,,0.00,0.00,VWS V14.01,2013-02-01 10:17:00,
2013-02-01 05:22:00,24.0,14.3,29.81,South,180,10.0,13.0,66,-99.99,,,0.00,0.00,VWS V14.01,2013-02-01 10:22:00,
2013-02-01 05:27:00,24.0,14.3,29.82,SW,225,7.0,13.0,66,-99.99,,,0.00,0.00,VWS V14.01,2013-02-01 10:27:00,
2013-02-01 05:32:00,25.0,15.3,29.82,SW,225,13.0,16.0,66,-99.99,,,0.00,0.00,VWS V14.01,2013-02-01 10:32:00,
2013-02-01 05:37:00,24.0,14.0,29.82,SW,225,8.0,13.0,65,-99.99,,,0.00,0.00,VWS V14.01,2013-02-01 10:37:00,
2013-02-01 05:42:00,24.0,14.3,29.82,SW,225,6.0,14.0,66,-99.99,,,0.00,0.00,VWS V14.01,2013-02-01 10:42:00,
2013-02-01 05:47:00,25.0,15.3,29.83,SSW,202,10.0,11.0,66,-99.99,,,0.00,0.00,VWS V14.01,2013-02-01 10:47:00,
2013-02-01 05:52:00,25.0,15.6,29.83,SW,225,10.0,10.0,67,-99.99,,,0.00,0.00,VWS V14.01,2013-02-01 10:52:00,
2013-02-01 05:57:00,25.0,15.6,29.83,SW,225,4.0,6.0,67,-99.99,,,0.00,0.00,VWS V14.01,2013-02-01 10:57:00,
2013-02-01 06:02:00,25.0,15.6,29.84,SSW,202,8.0,9.0,67,-99.99,,,0.00,0.00,VWS V14.01,2013-02-01 11:02:00,
2013-02-01 06:07:00,24.0,14.6,29.84,SSW,202,4.0,12.0,67,-99.99,,,0.00,0.00,VWS V14.01,2013-02-01 11:07:00,
2013-02-01 06:12:00,24.0,15.0,29.84,SW,225,5.0,8.0,68,-99.99,,,0.00,0.00,VWS V14.01,2013-02-01 11:12:00,
2013-02-01 06:17:00,24.0,15.0,29.84,WSW,248,10.0,15.0,68,-99.99,,,0.00,0.00,VWS V14.01,2013-02-01 11:17:00,
2013-02-01 06:22:00,24.0,15.0,29.85,SW,225,7.0,11.0,68,-99.99,,,0.00,0.00,VWS V14.01,2013-02-01 11:22:00,
2013-02-01 06:27:00,24.0,15.0,29.85,South,180,5.0,17.0,68,-99.99,,,0.00,0.00,VWS V14.01,2013-02-01 11:27:00,
2013-02-01 06:32:00,24.0,15.0,29.85,SSW,202,6.0,10.0,68,-99.99,,,0.00,0.00,VWS V14.01,2013-02-01 11:32:00,
2013-02-01 06:37:00,24.0,15.0,29.85,SW,225,4.0,8.0,68,-99.99,,,0.00,0.00,VWS V14.01,2013-02-01 11:37:00,
2013-02-01 06:42:00,24.0,15.0,29.86,South,180,2.0,9.0,68,-99.99,,,0.00,0.00,VWS V14.01,2013-02-01 11:42:00,
2013-02-01 06:47:00,24.0,15.0,29.86,SSE,158,4.0,9.0,68,-99.99,,,0.00,0.00,VWS V14.01,2013-02-01 11:47:00,
2013-02-01 06:52:00,24.0,15.0,29.86,SSW,202,6.0,15.0,68,-99.99,,,0.00,0.00,VWS V14.01,2013-02-01 11:52:00,
2013-02-01 06:57:00,24.0,15.0,29.86,SSW,202,8.0,10.0,68,-99.99,,,0.00,0.00,VWS V14.01,2013-02-01 11:57:00,
2013-02-01 07:02:00,24.0,14.6,29.87,SW,225,8.0,13.0,67,-99.99,,,0.00,0.00,VWS V14.01,2013-02-01 12:02:00,
2013-02-01 07:07:00,24.0,14.6,29.87,WSW,248,10.0,12.0,67,-99.99,,,0.00,0.00,VWS V14.01,2013-02-01 12:07:00,
2013-02-01 07:12:00,24.0,14.3,29.88,SSW,202,12.0,16.0,66,-99.99,,,0.00,0.00,VWS V14.01,2013-02-01 12:12:00,
2013-02-01 07:17:00,24.0,14.0,29.88,SSW,202,9.0,13.0,65,-99.99,,,0.00,0.00,VWS V14.01,2013-02-01 12:17:00,
2013-02-01 07:22:00,24.0,14.3,29.88,WSW,248,8.0,10.0,66,-99.99,,,0.00,0.00,VWS V14.01,2013-02-01 12:22:00,
2013-02-01 07:27:00,24.0,14.3,29.88,SW,225,12.0,13.0,66,-99.99,,,0.00,10.00,VWS V14.01,2013-02-01 12:27:00,
2013-02-01 07:32:00,24.0,14.3,29.89,WSW,248,7.0,15.0,66,-99.99,,,0.00,10.00,VWS V14.01,2013-02-01 12:32:00,
2013-02-01 07:37:00,24.0,14.3,29.89,SW,225,13.0,16.0,66,-99.99,,,0.00,10.00,VWS V14.01,2013-02-01 12:37:00,
2013-02-01 07:42:00,24.0,14.3,29.89,SSW,202,11.0,15.0,66,-99.99,,,0.00,10.00,VWS V14.01,2013-02-01 12:42:00,
2013-02-01 07:47:00,24.0,14.0,29.89,WSW,248,13.0,19.0,65,-99.99,,,0.00,10.00,VWS V14.01,2013-02-01 12:47:00,
2013-02-01 07:52:00,24.0,14.0,29.89,West,270,13.0,15.0,65,-99.99,,,0.00,20.00,VWS V14.01,2013-02-01 12:52:00,
2013-02-01 07:57:00,24.0,13.2,29.89,WSW,248,19.0,30.0,63,-99.99,,,0.00,20.00,VWS V14.01,2013-02-01 12:57:00,
2013-02-01 08:02:00,24.0,12.5,29.89,WNW,292,12.0,12.0,61,-99.99,,,0.00,20.00,VWS V14.01,2013-02-01 13:02:00,
2013-02-01 08:07:00,24.0,12.5,29.90,WSW,248,13.0,17.0,61,-99.99,,,0.00,20.00,VWS V14.01,2013-02-01 13:07:00,
2013-02-01 08:12:00,23.0,11.2,29.90,WSW,248,14.0,22.0,60,-99.99,,,0.00,20.00,VWS V14.01,2013-02-01 13:12:00,
2013-02-01 08:17:00,23.0,11.6,29.90,WSW,248,15.0,16.0,61,-99.99,,,0.00,30.00,VWS V14.01,2013-02-01 13:17:00,
2013-02-01 08:22:00,24.0,12.9,29.91,SSW,202,7.0,8.0,62,-99.99,,,0.00,50.00,VWS V14.01,2013-02-01 13:22:00,
2013-02-01 08:27:00,24.0,14.3,29.91,SSW,202,9.0,9.0,66,-99.99,,,0.00,40.00,VWS V14.01,2013-02-01 13:27:00,
2013-02-01 08:32:00,23.0,14.7,29.91,WSW,248,11.0,11.0,70,-99.99,,,0.00,70.00,VWS V14.01,2013-02-01 13:32:00,
2013-02-01 08:37:00,23.0,15.0,29.92,SSW,202,18.0,18.0,71,-99.99,,,0.00,220.00,VWS V14.01,2013-02-01 13:37:00,
2013-02-01 08:42:00,23.0,14.7,29.91,WSW,248,7.0,8.0,70,-99.99,,,0.00,210.00,VWS V14.01,2013-02-01 13:42:00,
2013-02-01 08:47:00,23.0,14.0,29.92,WSW,248,13.0,13.0,68,-99.99,,,0.00,280.00,VWS V14.01,2013-02-01 13:47:00,
2013-02-01 08:52:00,23.0,13.4,29.92,WSW,248,13.0,21.0,66,-99.99,,,0.00,300.00,VWS V14.01,2013-02-01 13:52:00,
2013-02-01 08:57:00,23.0,13.0,29.92,West,270,16.0,22.0,65,-99.99,,,0.00,90.00,VWS V14.01,2013-02-01 13:57:00,
2013-02-01 09:02:00,23.0,13.0,29.92,WSW,248,13.0,25.0,65,-99.99,,,0.00,180.00,VWS V14.01,2013-02-01 14:02:00,
2013-02-01 09:07:00,23.0,13.0,29.92,SW,225,19.0,23.0,65,-99.99,,,0.00,120.00,VWS V14.01,2013-02-01 14:07:00,
2013-02-01 09:12:00,23.0,11.9,29.92,WSW,248,18.0,28.0,62,-99.99,,,0.00,330.00,VWS V14.01,2013-02-01 14:12:00,
2013-02-01 09:17:00,23.0,11.6,29.92,WSW,248,12.0,23.0,61,-99.99,,,0.00,350.00,VWS V14.01,2013-02-01 14:17:00,
2013-02-01 09:22:00,23.0,10.8,29.92,West,270,23.0,35.0,59,-99.99,,,0.00,390.00,VWS V14.01,2013-02-01 14:22:00,
2013-02-01 09:27:00,23.0,11.2,29.93,WSW,248,15.0,31.0,60,-99.99,,,0.00,150.00,VWS V14.01,2013-02-01 14:27:00,
2013-02-01 09:32:00,23.0,11.2,29.93,SW,225,16.0,34.0,60,-99.99,,,0.00,380.00,VWS V14.01,2013-02-01 14:32:00,
2013-02-01 09:37:00,24.0,11.8,29.93,SW,225,23.0,35.0,59,-99.99,,,0.00,130.00,VWS V14.01,2013-02-01 14:37:00,
2013-02-01 09:42:00,24.0,11.8,29.93,SW,225,11.0,23.0,59,-99.99,,,0.00,360.00,VWS V14.01,2013-02-01 14:42:00,
2013-02-01 09:47:00,23.0,10.4,29.93,SW,225,25.0,35.0,58,-99.99,,,0.00,270.00,VWS V14.01,2013-02-01 14:47:00,
2013-02-01 09:52:00,23.0,10.4,29.94,SSW,202,22.0,35.0,58,-99.99,,,0.00,260.00,VWS V14.01,2013-02-01 14:52:00,
2013-02-01 09:57:00,23.0,10.4,29.94,WSW,248,26.0,26.0,58,-99.99,,,0.00,280.00,VWS V14.01,2013-02-01 14:57:00,
2013-02-01 10:02:00,23.0,10.8,29.94,WSW,248,16.0,16.0,59,-99.99,,,0.00,140.00,VWS V14.01,2013-02-01 15:02:00,
2013-02-01 10:07:00,24.0,11.8,29.94,West,270,18.0,20.0,59,-99.99,,,0.00,190.00,VWS V14.01,2013-02-01 15:07:00,
2013-02-01 10:12:00,24.0,11.8,29.95,WSW,248,23.0,23.0,59,-99.99,,,0.00,100.00,VWS V14.01,2013-02-01 15:12:00,
2013-02-01 10:17:00,24.0,11.4,29.95,West,270,18.0,31.0,58,-99.99,,,0.00,100.00,VWS V14.01,2013-02-01 15:17:00,
2013-02-01 10:22:00,24.0,11.0,29.95,SW,225,22.0,22.0,57,-99.99,,,0.00,480.00,VWS V14.01,2013-02-01 15:22:00,
2013-02-01 10:27:00,24.0,10.6,29.95,WSW,248,13.0,35.0,56,-99.99,,,0.00,350.00,VWS V14.01,2013-02-01 15:27:00,
2013-02-01 10:32:00,24.0,10.6,29.96,West,270,16.0,17.0,56,-99.99,,,0.00,130.00,VWS V14.01,2013-02-01 15:32:00,
2013-02-01 10:37:00,24.0,10.6,29.96,West,270,27.0,27.0,56,-99.99,,,0.00,150.00,VWS V14.01,2013-02-01 15:37:00,
2013-02-01 10:42:00,24.0,11.0,29.96,WSW,248,23.0,23.0,57,-99.99,,,0.00,320.00,VWS V14.01,2013-02-01 15:42:00,
2013-02-01 10:47:00,24.0,10.6,29.96,WSW,248,22.0,36.0,56,-99.99,,,0.00,530.00,VWS V14.01,2013-02-01 15:47:00,
2013-02-01 10:52:00,24.0,10.6,29.96,SW,225,18.0,29.0,56,-99.99,,,0.00,190.00,VWS V14.01,2013-02-01 15:52:00,
2013-02-01 10:57:00,24.0,10.6,29.96,WSW,248,25.0,30.0,56,-99.99,,,0.00,570.00,VWS V14.01,2013-02-01 15:57:00,
2013-02-01 11:02:00,24.0,10.2,29.96,WSW,248,22.0,25.0,55,-99.99,,,0.00,470.00,VWS V14.01,2013-02-01 16:02:00,
2013-02-01 11:07:00,24.0,10.2,29.97,West,270,18.0,27.0,55,-99.99,,,0.00,210.00,VWS V14.01,2013-02-01 16:07:00,
2013-02-01 11:12:00,24.0,10.2,29.97,West,270,12.0,25.0,55,-99.99,,,0.00,210.00,VWS V14.01,2013-02-01 16:12:00,
2013-02-01 11:17:00,24.0,9.8,29.97,SW,225,23.0,31.0,54,-99.99,,,0.00,250.00,VWS V14.01,2013-02-01 16:17:00,
2013-02-01 11:22:00,24.0,9.4,29.97,WSW,248,26.0,40.0,53,-99.99,,,0.00,220.00,VWS V14.01,2013-02-01 16:22:00,
2013-02-01 11:27:00,24.0,9.8,29.97,West,270,26.0,38.0,54,-99.99,,,0.00,290.00,VWS V14.01,2013-02-01 16:27:00,
2013-02-01 11:32:00,24.0,10.2,29.97,WSW,248,14.0,28.0,55,-99.99,,,0.00,230.00,VWS V14.01,2013-02-01 16:32:00,
2013-02-01 11:37:00,24.0,10.6,29.97,SW,225,33.0,33.0,56,-99.99,,,0.00,250.00,VWS V14.01,2013-02-01 16:37:00,
2013-02-01 11:42:00,24.0,10.6,29.98,SW,225,34.0,34.0,56,-99.99,,,0.00,170.00,VWS V14.01,2013-02-01 16:42:00,
2013-02-01 11:47:00,24.0,10.6,29.98,SW,225,24.0,29.0,56,-99.99,,,0.00,470.00,VWS V14.01,2013-02-01 16:47:00,
2013-02-01 11:52:00,24.0,10.6,29.97,SW,225,27.0,27.0,56,-99.99,,,0.00,200.00,VWS V14.01,2013-02-01 16:52:00,
2013-02-01 11:57:00,24.0,10.6,29.97,WSW,248,12.0,31.0,56,-99.99,,,0.00,170.00,VWS V14.01,2013-02-01 16:57:00,
2013-02-01 12:02:00,24.0,10.2,29.97,SW,225,10.0,10.0,55,-99.99,,,0.00,200.00,VWS V14.01,2013-02-01 17:02:00,
2013-02-01 12:07:00,24.0,9.8,29.97,WSW,248,22.0,33.0,54,-99.99,,,0.00,380.00,VWS V14.01,2013-02-01 17:07:00,
2013-02-01 12:12:00,25.0,11.1,29.98,WSW,248,16.0,21.0,55,-99.99,,,0.00,260.00,VWS V14.01,2013-02-01 17:12:00,
2013-02-01 12:17:00,25.0,11.1,29.97,SW,225,24.0,24.0,55,-99.99,,,0.00,110.00,VWS V14.01,2013-02-01 17:17:00,
2013-02-01 12:22:00,24.0,11.0,29.98,SW,225,15.0,16.0,57,-99.99,,,0.00,210.00,VWS V14.01,2013-02-01 17:22:00,
2013-02-01 12:27:00,24.0,11.4,29.98,SW,225,19.0,22.0,58,-99.99,,,0.00,200.00,VWS V14.01,2013-02-01 17:27:00,
2013-02-01 12:32:00,24.0,11.8,29.98,WSW,248,28.0,35.0,59,-99.99,,,0.00,380.00,VWS V14.01,2013-02-01 17:32:00,
2013-02-01 12:37:00,24.0,12.1,29.98,WSW,248,15.0,29.0,60,-99.99,,,0.00,440.00,VWS V14.01,2013-02-01 17:37:00,
2013-02-01 12:42:00,25.0,13.5,29.98,SW,225,13.0,13.0,61,-99.99,,,0.00,180.00,VWS V14.01,2013-02-01 17:42:00,
2013-02-01 12:47:00,24.0,12.5,29.98,WSW,248,18.0,18.0,61,-99.99,,,0.00,490.00,VWS V14.01,2013-02-01 17:47:00,
2013-02-01 12:52:00,24.0,11.4,29.98,WSW,248,18.0,32.0,58,-99.99,,,0.00,500.00,VWS V14.01,2013-02-01 17:52:00,
2013-02-01 12:57:00,25.0,12.3,29.98,WSW,248,8.0,10.0,58,-99.99,,,0.00,510.00,VWS V14.01,2013-02-01 17:57:00,
2013-02-01 13:02:00,25.0,11.5,29.98,WSW,248,20.0,22.0,56,-99.99,,,0.00,460.00,VWS V14.01,2013-02-01 18:02:00,
2013-02-01 13:07:00,25.0,10.7,29.98,WSW,248,11.0,13.0,54,-99.99,,,0.00,200.00,VWS V14.01,2013-02-01 18:07:00,
2013-02-01 13:12:00,25.0,9.9,29.98,West,270,21.0,36.0,52,-99.99,,,0.00,250.00,VWS V14.01,2013-02-01 18:12:00,
2013-02-01 13:17:00,25.0,9.4,29.98,WSW,248,19.0,39.0,51,-99.99,,,0.00,130.00,VWS V14.01,2013-02-01 18:17:00,
2013-02-01 13:22:00,24.0,10.6,29.99,WSW,248,24.0,36.0,56,-99.99,,,0.00,230.00,VWS V14.01,2013-02-01 18:22:00,
2013-02-01 13:27:00,25.0,10.3,29.99,West,270,18.0,26.0,53,-99.99,,,0.00,310.00,VWS V14.01,2013-02-01 18:27:00,
2013-02-01 13:32:00,25.0,9.9,29.99,West,270,18.0,25.0,52,-99.99,,,0.00,170.00,VWS V14.01,2013-02-01 18:32:00,
2013-02-01 13:37:00,25.0,9.9,29.99,SSW,202,8.0,10.0,52,-99.99,,,0.00,150.00,VWS V14.01,2013-02-01 18:37:00,
2013-02-01 13:42:00,25.0,9.4,29.99,West,270,16.0,18.0,51,-99.99,,,0.00,270.00,VWS V14.01,2013-02-01 18:42:00,
2013-02-01 13:47:00,26.0,9.9,29.99,SSW,202,18.0,18.0,50,-99.99,,,0.00,390.00,VWS V14.01,2013-02-01 18:47:00,
2013-02-01 13:52:00,26.0,8.6,29.99,SW,225,17.0,28.0,47,-99.99,,,0.00,170.00,VWS V14.01,2013-02-01 18:52:00,
2013-02-01 13:57:00,26.0,8.6,29.99,WSW,248,16.0,25.0,47,-99.99,,,0.00,160.00,VWS V14.01,2013-02-01 18:57:00,
2013-02-01 14:02:00,25.0,7.6,30.00,SW,225,28.0,32.0,47,-99.99,,,0.00,160.00,VWS V14.01,2013-02-01 19:02:00,
2013-02-01 14:07:00,25.0,8.1,30.00,WSW,248,16.0,28.0,48,-99.99,,,0.00,150.00,VWS V14.01,2013-02-01 19:07:00,
2013-02-01 14:12:00,25.0,8.1,30.00,SW,225,13.0,32.0,48,-99.99,,,0.00,120.00,VWS V14.01,2013-02-01 19:12:00,
2013-02-01 14:17:00,25.0,8.1,30.00,WSW,248,25.0,39.0,48,-99.99,,,0.00,100.00,VWS V14.01,2013-02-01 19:17:00,
2013-02-01 14:22:00,25.0,9.9,30.00,WSW,248,25.0,34.0,52,-99.99,,,0.00,80.00,VWS V14.01,2013-02-01 19:22:00,
2013-02-01 14:27:00,25.0,10.7,30.01,WSW,248,12.0,20.0,54,-99.99,,,0.00,80.00,VWS V14.01,2013-02-01 19:27:00,
2013-02-01 14:32:00,25.0,11.9,30.01,West,270,14.0,20.0,57,-99.99,,,0.00,70.00,VWS V14.01,2013-02-01 19:32:00,
2013-02-01 14:37:00,24.0,12.1,30.01,SW,225,15.0,28.0,60,-99.99,,,0.00,60.00,VWS V14.01,2013-02-01 19:37:00,
2013-02-01 14:42:00,24.0,12.5,30.02,WSW,248,24.0,26.0,61,-99.99,,,0.00,70.00,VWS V14.01,2013-02-01 19:42:00,
2013-02-01 14:47:00,24.0,11.4,30.01,SW,225,15.0,27.0,58,-99.99,,,0.00,80.00,VWS V14.01,2013-02-01 19:47:00,
2013-02-01 14:52:00,25.0,11.5,30.02,WSW,248,13.0,20.0,56,-99.99,,,0.00,120.00,VWS V14.01,2013-02-01 19:52:00,
2013-02-01 14:57:00,26.0,11.2,30.02,South,180,17.0,25.0,53,-99.99,,,0.00,160.00,VWS V14.01,2013-02-01 19:57:00,
2013-02-01 15:02:00,25.0,9.9,30.02,West,270,18.0,28.0,52,-99.99,,,0.00,120.00,VWS V14.01,2013-02-01 20:02:00,
2013-02-01 15:07:00,25.0,10.7,30.03,SW,225,18.0,33.0,54,-99.99,,,0.00,140.00,VWS V14.01,2013-02-01 20:07:00,
2013-02-01 15:12:00,25.0,10.3,30.03,SW,225,20.0,25.0,53,-99.99,,,0.00,260.00,VWS V14.01,2013-02-01 20:12:00,
2013-02-01 15:17:00,25.0,11.1,30.03,South,180,9.0,28.0,55,-99.99,,,0.00,240.00,VWS V14.01,2013-02-01 20:17:00,
2013-02-01 15:22:00,25.0,11.5,30.04,WSW,248,19.0,26.0,56,-99.99,,,0.00,60.00,VWS V14.01,2013-02-01 20:22:00,
2013-02-01 15:27:00,24.0,11.4,30.04,WSW,248,17.0,21.0,58,-99.99,,,0.00,40.00,VWS V14.01,2013-02-01 20:27:00,
2013-02-01 15:32:00,24.0,11.0,30.04,SW,225,15.0,25.0,57,-99.99,,,0.00,30.00,VWS V14.01,2013-02-01 20:32:00,
2013-02-01 15:37:00,25.0,11.9,30.04,WSW,248,13.0,13.0,57,-99.99,,,0.00,50.00,VWS V14.01,2013-02-01 20:37:00,
2013-02-01 15:42:00,25.0,11.9,30.05,SW,225,11.0,11.0,57,-99.99,,,0.00,90.00,VWS V14.01,2013-02-01 20:42:00,
2013-02-01 15:47:00,25.0,11.9,30.05,West,270,15.0,27.0,57,-99.99,,,0.00,280.00,VWS V14.01,2013-02-01 20:47:00,
2013-02-01 15:52:00,25.0,12.3,30.05,WSW,248,16.0,23.0,58,-99.99,,,0.00,80.00,VWS V14.01,2013-02-01 20:52:00,
2013-02-01 15:57:00,25.0,11.9,30.05,WSW,248,22.0,22.0,57,-99.99,,,0.00,100.00,VWS V14.01,2013-02-01 20:57:00,
2013-02-01 16:02:00,25.0,11.9,30.06,WSW,248,9.0,20.0,57,-99.99,,,0.00,50.00,VWS V14.01,2013-02-01 21:02:00,
2013-02-01 16:07:00,25.0,11.5,30.06,SW,225,10.0,15.0,56,-99.99,,,0.00,50.00,VWS V14.01,2013-02-01 21:07:00,
2013-02-01 16:12:00,25.0,10.7,30.06,WSW,248,17.0,23.0,54,-99.99,,,0.00,50.00,VWS V14.01,2013-02-01 21:12:00,
2013-02-01 16:17:00,25.0,9.4,30.07,West,270,13.0,23.0,51,-99.99,,,0.00,80.00,VWS V14.01,2013-02-01 21:17:00,
2013-02-01 16:22:00,26.0,10.4,30.07,SSW,202,18.0,22.0,51,-99.99,,,0.00,100.00,VWS V14.01,2013-02-01 21:22:00,
2013-02-01 16:27:00,25.0,8.6,30.07,SW,225,14.0,27.0,49,-99.99,,,0.00,30.00,VWS V14.01,2013-02-01 21:27:00,
2013-02-01 16:32:00,25.0,9.0,30.07,WSW,248,15.0,15.0,50,-99.99,,,0.00,40.00,VWS V14.01,2013-02-01 21:32:00,
2013-02-01 16:37:00,25.0,9.4,30.08,WSW,248,13.0,17.0,51,-99.99,,,0.00,60.00,VWS V14.01,2013-02-01 21:37:00,
2013-02-01 16:42:00,25.0,9.0,30.08,WSW,248,7.0,18.0,50,-99.99,,,0.00,80.00,VWS V14.01,2013-02-01 21:42:00,
2013-02-01 16:47:00,25.0,9.0,30.08,SSW,202,13.0,26.0,50,-99.99,,,0.00,60.00,VWS V14.01,2013-02-01 21:47:00,
2013-02-01 16:52:00,25.0,9.4,30.09,SW,225,11.0,19.0,51,-99.99,,,0.00,60.00,VWS V14.01,2013-02-01 21:52:00,
2013-02-01 16:57:00,25.0,10.7,30.09,East,90,4.0,22.0,54,-99.99,,,0.00,50.00,VWS V14.01,2013-02-01 21:57:00,
2013-02-01 17:02:00,25.0,11.9,30.10,SSW,202,7.0,10.0,57,-99.99,,,0.00,50.00,VWS V14.01,2013-02-01 22:02:00,
2013-02-01 17:07:00,24.0,11.8,30.10,SW,225,14.0,25.0,59,-99.99,,,0.00,40.00,VWS V14.01,2013-02-01 22:07:00,
2013-02-01 17:12:00,24.0,12.5,30.10,South,180,4.0,18.0,61,-99.99,,,0.00,30.00,VWS V14.01,2013-02-01 22:12:00,
2013-02-01 17:17:00,24.0,12.5,30.10,SW,225,15.0,23.0,61,-99.99,,,0.00,10.00,VWS V14.01,2013-02-01 22:17:00,
2013-02-01 17:22:00,24.0,12.5,30.10,WSW,248,13.0,22.0,61,-99.99,,,0.00,10.00,VWS V14.01,2013-02-01 22:22:00,
2013-02-01 17:27:00,24.0,12.5,30.11,SW,225,12.0,16.0,61,-99.99,,,0.00,0.00,VWS V14.01,2013-02-01 22:27:00,
2013-02-01 17:32:00,23.0,10.8,30.11,SW,225,21.0,28.0,59,-99.99,,,0.00,0.00,VWS V14.01,2013-02-01 22:32:00,
2013-02-01 17:37:00,24.0,11.8,30.11,SW,225,13.0,13.0,59,-99.99,,,0.00,0.00,VWS V14.01,2013-02-01 22:37:00,
2013-02-01 17:42:00,23.0,10.8,30.11,SW,225,19.0,30.0,59,-99.99,,,0.00,0.00,VWS V14.01,2013-02-01 22:42:00,
2013-02-01 17:47:00,23.0,10.8,30.12,SSW,202,10.0,20.0,59,-99.99,,,0.00,0.00,VWS V14.01,2013-02-01 22:47:00,
2013-02-01 17:52:00,23.0,11.2,30.12,SSW,202,16.0,19.0,60,-99.99,,,0.00,0.00,VWS V14.01,2013-02-01 22:52:00,
2013-02-01 17:57:00,23.0,10.8,30.12,SW,225,12.0,16.0,59,-99.99,,,0.00,0.00,VWS V14.01,2013-02-01 22:57:00,
2013-02-01 18:02:00,23.0,10.8,30.13,South,180,18.0,18.0,59,-99.99,,,0.00,0.00,VWS V14.01,2013-02-01 23:02:00,
2013-02-01 18:07:00,23.0,10.4,30.13,SSW,202,21.0,25.0,58,-99.99,,,0.00,0.00,VWS V14.01,2013-02-01 23:07:00,
2013-02-01 18:12:00,23.0,10.8,30.13,SW,225,13.0,18.0,59,-99.99,,,0.00,0.00,VWS V14.01,2013-02-01 23:12:00,
2013-02-01 18:17:00,23.0,10.4,30.14,SSW,202,9.0,16.0,58,-99.99,,,0.00,0.00,VWS V14.01,2013-02-01 23:17:00,
2013-02-01 18:22:00,23.0,10.4,30.14,South,180,14.0,21.0,58,-99.99,,,0.00,0.00,VWS V14.01,2013-02-01 23:22:00,
2013-02-01 18:27:00,23.0,10.4,30.14,West,270,8.0,18.0,58,-99.99,,,0.00,0.00,VWS V14.01,2013-02-01 23:27:00,
2013-02-01 18:32:00,23.0,10.1,30.14,SW,225,14.0,17.0,57,-99.99,,,0.00,0.00,VWS V14.01,2013-02-01 23:32:00,
2013-02-01 18:37:00,23.0,10.1,30.15,SW,225,8.0,17.0,57,-99.99,,,0.00,0.00,VWS V14.01,2013-02-01 23:37:00,
2013-02-01 18:42:00,23.0,10.1,30.15,SW,225,13.0,18.0,57,-99.99,,,0.00,0.00,VWS V14.01,2013-02-01 23:42:00,
2013-02-01 18:47:00,23.0,10.1,30.15,SSW,202,8.0,20.0,57,-99.99,,,0.00,0.00,VWS V14.01,2013-02-01 23:47:00,
2013-02-01 18:52:00,23.0,9.7,30.16,SW,225,18.0,21.0,56,-99.99,,,0.00,0.00,VWS V14.01,2013-02-01 23:52:00,
2013-02-01 18:57:00,23.0,10.1,30.16,SW,225,10.0,28.0,57,-99.99,,,0.00,0.00,VWS V14.01,2013-02-01 23:57:00,
2013-02-01 19:02:00,23.0,10.4,30.16,SSE,158,8.0,14.0,58,-99.99,,,0.00,0.00,VWS V14.01,2013-02-02 00:02:00,
2013-02-01 19:07:00,22.0,9.9,30.17,SSW,202,10.0,16.0,59,-99.99,,,0.00,0.00,VWS V14.01,2013-02-02 00:07:00,
2013-02-01 19:12:00,22.0,9.9,30.17,SSW,202,15.0,24.0,59,-99.99,,,0.00,0.00,VWS V14.01,2013-02-02 00:12:00,
2013-02-01 19:17:00,22.0,10.2,30.17,SSE,158,5.0,15.0,60,-99.99,,,0.00,0.00,VWS V14.01,2013-02-02 00:17:00,
2013-02-01 19:22:00,22.0,10.2,30.17,South,180,17.0,18.0,60,-99.99,,,0.00,0.00,VWS V14.01,2013-02-02 00:22:00,
2013-02-01 19:27:00,22.0,10.6,30.17,SSW,202,13.0,22.0,61,-99.99,,,0.00,0.00,VWS V14.01,2013-02-02 00:27:00,
2013-02-01 19:32:00,22.0,10.6,30.17,SSW,202,15.0,18.0,61,-99.99,,,0.00,0.00,VWS V14.01,2013-02-02 00:32:00,
2013-02-01 19:37:00,22.0,11.0,30.18,SW,225,10.0,16.0,62,-99.99,,,0.00,0.00,VWS V14.01,2013-02-02 00:37:00,
2013-02-01 19:42:00,22.0,11.0,30.18,WSW,248,5.0,14.0,62,-99.99,,,0.00,0.00,VWS V14.01,2013-02-02 00:42:00,
2013-02-01 19:47:00,22.0,11.0,30.18,South,180,11.0,13.0,62,-99.99,,,0.00,0.00,VWS V14.01,2013-02-02 00:47:00,
2013-02-01 19:52:00,22.0,11.0,30.18,SW,225,9.0,16.0,62,-99.99,,,0.00,0.00,VWS V14.01,2013-02-02 00:52:00,
2013-02-01 19:57:00,22.0,11.0,30.18,SSW,202,14.0,22.0,62,-99.99,,,0.00,0.00,VWS V14.01,2013-02-02 00:57:00,
2013-02-01 20:02:00,22.0,11.0,30.19,SSW,202,13.0,17.0,62,-99.99,,,0.00,0.00,VWS V14.01,2013-02-02 01:02:00,
2013-02-01 20:07:00,22.0,10.6,30.19,SSW,202,10.0,13.0,61,-99.99,,,0.00,0.00,VWS V14.01,2013-02-02 01:07:00,
2013-02-01 20:12:00,22.0,10.6,30.19,SE,135,8.0,13.0,61,-99.99,,,0.00,0.00,VWS V14.01,2013-02-02 01:12:00,
2013-02-01 20:17:00,21.0,9.7,30.19,SSW,202,16.0,23.0,61,-99.99,,,0.00,0.00,VWS V14.01,2013-02-02 01:17:00,
2013-02-01 20:22:00,21.0,9.7,30.19,ESE,112,3.0,13.0,61,-99.99,,,0.00,0.00,VWS V14.01,2013-02-02 01:22:00,
2013-02-01 20:27:00,21.0,10.0,30.19,SSW,202,9.0,14.0,62,-99.99,,,0.00,0.00,VWS V14.01,2013-02-02 01:27:00,
2013-02-01 20:32:00,21.0,10.0,30.19,SSW,202,10.0,17.0,62,-99.99,,,0.00,0.00,VWS V14.01,2013-02-02 01:32:00,
2013-02-01 20:37:00,21.0,10.0,30.19,South,180,7.0,9.0,62,-99.99,,,0.00,0.00,VWS V14.01,2013-02-02 01:37:00,
2013-02-01 20:42:00,21.0,10.0,30.20,SW,225,15.0,17.0,62,-99.99,,,0.00,0.00,VWS V14.01,2013-02-02 01:42:00,
2013-02-01 20:47:00,21.0,9.7,30.20,SSW,202,8.0,13.0,61,-99.99,,,0.00,0.00,VWS V14.01,2013-02-02 01:47:00,
2013-02-01 20:52:00,21.0,9.7,30.20,SSW,202,9.0,15.0,61,-99.99,,,0.00,0.00,VWS V14.01,2013-02-02 01:52:00,
2013-02-01 20:57:00,21.0,9.3,30.20,SW,225,18.0,18.0,60,-99.99,,,0.00,0.00,VWS V14.01,2013-02-02 01:57:00,
2013-02-01 21:02:00,21.0,9.3,30.21,SSW,202,6.0,15.0,60,-99.99,,,0.00,0.00,VWS V14.01,2013-02-02 02:02:00,
2013-02-01 21:07:00,21.0,9.3,30.21,SW,225,13.0,19.0,60,-99.99,,,0.00,0.00,VWS V14.01,2013-02-02 02:07:00,
2013-02-01 21:12:00,21.0,9.7,30.21,South,180,7.0,15.0,61,-99.99,,,0.00,0.00,VWS V14.01,2013-02-02 02:12:00,
2013-02-01 21:17:00,21.0,9.3,30.22,SW,225,10.0,18.0,60,-99.99,,,0.00,0.00,VWS V14.01,2013-02-02 02:17:00,
2013-02-01 21:22:00,21.0,9.3,30.21,SW,225,10.0,12.0,60,-99.99,,,0.00,0.00,VWS V14.01,2013-02-02 02:22:00,
2013-02-01 21:27:00,21.0,9.3,30.22,WSW,248,8.0,13.0,60,-99.99,,,0.00,0.00,VWS V14.01,2013-02-02 02:27:00,
2013-02-01 21:32:00,21.0,9.3,30.22,SSW,202,11.0,12.0,60,-99.99,,,0.00,0.00,VWS V14.01,2013-02-02 02:32:00,
2013-02-01 21:37:00,21.0,9.3,30.22,SW,225,9.0,9.0,60,-99.99,,,0.00,0.00,VWS V14.01,2013-02-02 02:37:00,
2013-02-01 21:42:00,20.0,8.4,30.22,SSW,202,15.0,16.0,60,-99.99,,,0.00,0.00,VWS V14.01,2013-02-02 02:42:00,
2013-02-01 21:47:00,20.0,8.4,30.23,SSW,202,1.0,13.0,60,-99.99,,,0.00,0.00,VWS V14.01,2013-02-02 02:47:00,
2013-02-01 21:52:00,20.0,8.0,30.23,SSW,202,9.0,9.0,59,-99.99,,,0.00,0.00,VWS V14.01,2013-02-02 02:52:00,
2013-02-01 21:57:00,21.0,8.9,30.23,West,270,7.0,7.0,59,-99.99,,,0.00,0.00,VWS V14.01,2013-02-02 02:57:00,
2013-02-01 22:02:00,21.0,9.3,30.23,SSW,202,4.0,6.0,60,-99.99,,,0.00,0.00,VWS V14.01,2013-02-02 03:02:00,
2013-02-01 22:07:00,20.0,8.0,30.23,South,180,9.0,16.0,59,-99.99,,,0.00,0.00,VWS V14.01,2013-02-02 03:07:00,
2013-02-01 22:12:00,20.0,8.0,30.24,SW,225,10.0,11.0,59,-99.99,,,0.00,0.00,VWS V14.01,2013-02-02 03:12:00,
2013-02-01 22:17:00,20.0,8.0,30.24,SSW,202,12.0,16.0,59,-99.99,,,0.00,0.00,VWS V14.01,2013-02-02 03:17:00,
2013-02-01 22:22:00,20.0,8.4,30.24,SSW,202,5.0,6.0,60,-99.99,,,0.00,0.00,VWS V14.01,2013-02-02 03:22:00,
2013-02-01 22:27:00,20.0,8.0,30.24,SSE,158,5.0,9.0,59,-99.99,,,0.00,0.00,VWS V14.01,2013-02-02 03:27:00,
2013-02-01 22:32:00,20.0,8.4,30.24,SSW,202,5.0,6.0,60,-99.99,,,0.00,0.00,VWS V14.01,2013-02-02 03:32:00,
2013-02-01 22:37:00,20.0,8.0,30.24,SE,135,5.0,5.0,59,-99.99,,,0.00,0.00,VWS V14.01,2013-02-02 03:37:00,
2013-02-01 22:42:00,20.0,8.0,30.24,SSW,202,10.0,15.0,59,-99.99,,,0.00,0.00,VWS V14.01,2013-02-02 03:42:00,
2013-02-01 22:47:00,19.0,7.1,30.24,SSW,202,12.0,15.0,59,-99.99,,,0.00,0.00,VWS V14.01,2013-02-02 03:47:00,
2013-02-01 22:52:00,19.0,7.1,30.24,SSW,202,6.0,6.0,59,-99.99,,,0.00,0.00,VWS V14.01,2013-02-02 03:52:00,
2013-02-01 22:57:00,19.0,7.1,30.25,SW,225,7.0,11.0,59,-99.99,,,0.00,0.00,VWS V14.01,2013-02-02 03:57:00,
2013-02-01 23:02:00,19.0,7.4,30.25,SW,225,9.0,10.0,60,-99.99,,,0.00,0.00,VWS V14.01,2013-02-02 04:02:00,
2013-02-01 23:07:00,19.0,7.4,30.25,South,180,6.0,9.0,60,-99.99,,,0.00,0.00,VWS V14.01,2013-02-02 04:07:00,
2013-02-01 23:12:00,19.0,7.4,30.25,SSW,202,19.0,19.0,60,-99.99,,,0.00,0.00,VWS V14.01,2013-02-02 04:12:00,
2013-02-01 23:17:00,19.0,7.4,30.25,SW,225,6.0,7.0,60,-99.99,,,0.00,0.00,VWS V14.01,2013-02-02 04:17:00,
2013-02-01 23:22:00,19.0,7.4,30.25,WSW,248,4.0,8.0,60,-99.99,,,0.00,0.00,VWS V14.01,2013-02-02 04:22:00,
2013-02-01 23:27:00,19.0,7.4,30.25,SSW,202,8.0,10.0,60,-99.99,,,0.00,0.00,VWS V14.01,2013-02-02 04:27:00,
2013-02-01 23:32:00,19.0,7.4,30.25,SSW,202,11.0,12.0,60,-99.99,,,0.00,0.00,VWS V14.01,2013-02-02 04:32:00,
2013-02-01 23:37:00,19.0,7.4,30.25,SSW,202,5.0,8.0,60,-99.99,,,0.00,0.00,VWS V14.01,2013-02-02 04:37:00,
2013-02-01 23:42:00,19.0,7.8,30.26,WSW,248,6.0,6.0,61,-99.99,,,0.00,0.00,VWS V14.01,2013-02-02 04:42:00,
2013-02-01 23:47:00,19.0,7.8,30.26,SSW,202,5.0,7.0,61,-99.99,,,0.00,0.00,VWS V14.01,2013-02-02 04:47:00,
2013-02-01 23:52:00,19.0,7.4,30.26,South,180,6.0,9.0,60,-99.99,,,0.00,0.00,VWS V14.01,2013-02-02 04:52:00,
2013-02-01 23:57:00,19.0,7.8,30.26,SSW,202,10.0,12.0,61,-99.99,,,0.00,0.00,VWS V14.01,2013-02-02 04:57:00,